START_TIME,STEP,MOV.,M34,t_acc.,L5,t_acc.,L18,t_acc.,L14,t_acc.
1979-07-23 15:00:24.250 ,1,0,0.,12.0,0.,12.0,0.,12.0,0.,12.0
1979-07-23 15:00:36.250 ,1,0,0.,12.0,0.,12.0,0.,12.0,0.,12.0
1979-07-23 15:00:48.240 ,2,1,0.,12.0,0.,12.0,0.,12.0,0.,12.0
1979-07-23 15:01:00.250 ,2,1,1.,12.0,0.,12.0,0.,12.0,0.,12.0
1979-07-23 15:01:12.250 ,2,0,1.,12.0,0.,12.0,0.,12.0,0.,12.0
1979-07-23 15:01:24.250 ,2,0,0.,12.0,0.,12.0,0.,12.0,0.,12.0
1979-07-23 15:01:36.250 ,3,1,0.,12.0,0.,12.0,0.,12.0,0.,12.0
1979-07-23 15:01:48.250 ,3,1,0.,12.0,0.,12.0,0.,12.0,0.,12.0
1979-07-23 15:02:00.240 ,3,0,0.,12.0,0.,12.0,0.,12.0,1.,12.0
1979-07-23 15:02:12.240 ,3,0,0.,12.0,0.,12.0,0.,12.0,0.,12.0
1979-07-23 15:02:24.240 ,4,1,0.,12.0,0.,12.0,0.,12.0,0.,12.0
1979-07-23 15:02:36.250 ,4,1,1.,12.0,0.,12.0,0.,12.0,0.,12.0
1979-07-23 15:02:48.240 ,4,0,0.,12.0,0.,12.0,0.,12.0,0.,12.0
1979-07-23 15:03:00.250 ,4,0,0.,12.0,0.,12.0,0.,12.0,0.,12.0
1979-07-23 15:03:12.240 ,5,1,0.,12.0,0.,12.0,0.,12.0,0.,12.0
1979-07-23 15:03:24.250 ,5,1,0.,12.0,0.,12.0,0.,12.0,0.,12.0
1979-07-23 15:03:36.240 ,5,0,0.,12.0,0.,12.0,0.,12.0,0.,12.0
1979-07-23 15:03:48.250 ,5,0,0.,12.0,0.,12.0,0.,12.0,0.,12.0
1979-07-23 15:04:00.240 ,6,1,0.,12.0,0.,12.0,0.,12.0,0.,12.0
1979-07-23 15:04:12.240 ,6,1,0.,12.0,0.,12.0,0.,12.0,0.,12.0
1979-07-23 15:04:24.250 ,6,0,1.,12.0,0.,12.0,0.,12.0,0.,12.0
1979-07-23 15:04:36.250 ,6,0,0.,12.0,0.,12.0,0.,12.0,0.,12.0
1979-07-23 15:04:48.250 ,7,1,0.,12.0,0.,12.0,0.,12.0,0.,12.0
1979-07-23 15:05:00.250 ,7,1,1.,12.0,0.,12.0,0.,12.0,0.,12.0
1979-07-23 15:05:12.250 ,7,0,0.,12.0,0.,12.0,0.,12.0,0.,12.0
1979-07-23 15:05:24.250 ,7,0,0.,12.0,0.,12.0,0.,12.0,0.,12.0
1979-07-23 15:05:36.250 ,7,1,0.,12.0,0.,12.0,0.,12.0,0.,12.0
1979-07-23 15:05:48.250 ,7,1,0.,12.0,0.,12.0,0.,12.0,0.,12.0
1979-07-23 15:06:00.250 ,7,0,0.,12.0,0.,12.0,0.,12.0,0.,12.0
1979-07-23 15:06:12.250 ,7,0,0.,12.0,0.,12.0,0.,12.0,0.,12.0
1979-07-23 15:06:24.250 ,6,1,0.,12.0,0.,12.0,0.,12.0,0.,12.0
1979-07-23 15:06:36.250 ,6,1,0.,12.0,0.,12.0,0.,12.0,0.,12.0
1979-07-23 15:06:48.250 ,6,0,0.,12.0,0.,12.0,0.,12.0,0.,12.0
1979-07-23 15:07:00.250 ,6,0,0.,12.0,0.,12.0,0.,12.0,0.,12.0
1979-07-23 15:07:12.250 ,5,1,0.,12.0,0.,12.0,0.,12.0,0.,12.0
1979-07-23 15:07:24.250 ,5,1,0.,12.0,0.,12.0,0.,12.0,0.,12.0
1979-07-23 15:07:36.250 ,5,0,0.,12.0,0.,12.0,0.,12.0,0.,12.0
1979-07-23 15:07:48.250 ,5,0,0.,12.0,0.,12.0,0.,12.0,0.,12.0
1979-07-23 15:08:00.250 ,4,1,0.,12.0,0.,12.0,0.,12.0,0.,12.0
1979-07-23 15:08:12.250 ,4,1,0.,12.0,0.,12.0,0.,12.0,0.,12.0
1979-07-23 15:08:24.250 ,4,0,0.,12.0,0.,12.0,0.,12.0,0.,12.0
1979-07-23 15:08:36.240 ,4,0,0.,12.0,0.,12.0,0.,12.0,0.,12.0
1979-07-23 15:08:48.240 ,3,1,1.,12.0,0.,12.0,0.,12.0,0.,12.0
1979-07-23 15:09:00.240 ,3,1,0.,12.0,0.,12.0,0.,12.0,0.,12.0
1979-07-23 15:09:12.240 ,3,0,0.,12.0,0.,12.0,0.,12.0,0.,12.0
1979-07-23 15:09:24.240 ,3,0,0.,12.0,0.,12.0,0.,12.0,0.,12.0
1979-07-23 15:09:36.240 ,2,1,0.,12.0,0.,12.0,0.,12.0,0.,12.0
1979-07-23 15:09:48.240 ,2,1,0.,12.0,0.,12.0,0.,12.0,0.,12.0
1979-07-23 15:10:00.240 ,2,0,0.,12.0,0.,12.0,0.,12.0,0.,12.0
1979-07-23 15:10:12.240 ,2,0,0.,12.0,0.,12.0,0.,12.0,0.,12.0
1979-07-23 15:10:24.240 ,1,1,0.,12.0,0.,12.0,0.,12.0,0.,12.0
1979-07-23 15:10:36.240 ,1,1,0.,12.0,0.,12.0,0.,12.0,0.,12.0
1979-07-23 15:10:48.240 ,1,0,0.,12.0,0.,12.0,0.,12.0,0.,12.0
1979-07-23 15:11:00.240 ,1,0,0.,12.0,0.,12.0,0.,12.0,0.,12.0
1979-07-23 15:11:12.240 ,0,1,0.,12.0,0.,12.0,0.,12.0,0.,12.0
1979-07-23 15:11:24.240 ,0,1,0.,12.0,0.,12.0,0.,12.0,0.,12.0
1979-07-23 15:11:36.240 ,0,0,0.,12.0,0.,12.0,0.,12.0,0.,12.0
1979-07-23 15:11:48.240 ,0,0,0.,12.0,0.,12.0,0.,12.0,0.,12.0
1979-07-23 15:12:00.240 ,0,1,0.,12.0,0.,12.0,0.,12.0,0.,12.0
1979-07-23 15:12:12.240 ,0,1,0.,12.0,0.,12.0,0.,12.0,0.,12.0
1979-07-23 15:12:24.240 ,0,0,1.,12.0,0.,12.0,0.,12.0,0.,12.0
1979-07-23 15:12:36.240 ,0,0,0.,12.0,0.,12.0,0.,12.0,0.,12.0
1979-07-23 15:12:48.240 ,1,1,0.,12.0,0.,12.0,0.,12.0,0.,12.0
1979-07-23 15:13:00.240 ,1,1,1.,12.0,0.,12.0,0.,12.0,0.,12.0
1979-07-23 15:13:12.240 ,1,0,0.,12.0,0.,12.0,0.,12.0,0.,12.0
1979-07-23 15:13:24.240 ,1,0,0.,12.0,0.,12.0,0.,12.0,0.,12.0
1979-07-23 15:13:36.240 ,0,0,0.,12.0,0.,12.0,0.,12.0,0.,12.0
1979-07-23 15:13:48.240 ,0,0,0.,12.0,0.,12.0,0.,12.0,0.,12.0
1979-07-23 15:14:00.240 ,0,0,1.,12.0,0.,12.0,0.,12.0,0.,12.0
1979-07-23 15:14:12.240 ,0,0,0.,12.0,0.,12.0,0.,12.0,0.,12.0
1979-07-23 15:14:24.240 ,7,0,0.,12.0,0.,12.0,0.,12.0,0.,12.0
1979-07-23 15:14:36.240 ,7,0,0.,12.0,0.,12.0,0.,12.0,0.,12.0
1979-07-23 15:14:48.240 ,7,0,0.,12.0,0.,12.0,0.,12.0,0.,12.0
1979-07-23 15:15:00.240 ,7,0,0.,12.0,0.,12.0,0.,12.0,0.,12.0
1979-07-23 15:15:12.240 ,7,0,0.,12.0,0.,12.0,0.,12.0,0.,12.0
1979-07-23 15:15:24.240 ,7,0,0.,12.0,0.,12.0,0.,12.0,0.,12.0
1979-07-23 15:15:36.240 ,7,0,0.,12.0,0.,12.0,0.,12.0,0.,12.0
1979-07-23 15:15:48.240 ,7,0,0.,12.0,0.,12.0,0.,12.0,0.,12.0
1979-07-23 15:16:00.240 ,7,0,0.,12.0,0.,12.0,0.,12.0,0.,12.0
1979-07-23 15:16:12.240 ,7,0,0.,12.0,0.,12.0,0.,12.0,0.,12.0
1979-07-23 15:16:24.240 ,7,0,0.,12.0,0.,12.0,0.,12.0,0.,12.0
1979-07-23 15:16:36.240 ,7,0,0.,12.0,0.,12.0,0.,12.0,0.,12.0
1979-07-23 15:16:48.240 ,7,0,0.,12.0,0.,12.0,0.,12.0,0.,12.0
1979-07-23 15:17:00.240 ,7,0,0.,12.0,0.,12.0,0.,12.0,0.,12.0
1979-07-23 15:17:12.240 ,7,0,0.,12.0,0.,12.0,0.,12.0,0.,12.0
1979-07-23 15:17:24.240 ,7,0,0.,12.0,0.,12.0,0.,12.0,0.,12.0
1979-07-23 15:17:36.240 ,7,0,0.,12.0,0.,12.0,0.,12.0,0.,12.0
1979-07-23 15:17:48.240 ,7,0,0.,12.0,0.,12.0,0.,12.0,0.,12.0
1979-07-23 15:18:00.240 ,7,0,0.,12.0,0.,12.0,0.,12.0,0.,12.0
1979-07-23 15:18:12.240 ,7,0,0.,12.0,0.,12.0,0.,12.0,0.,12.0
1979-07-23 15:18:24.240 ,7,0,0.,12.0,0.,12.0,0.,12.0,0.,12.0
1979-07-23 15:18:36.240 ,7,0,0.,12.0,0.,12.0,0.,12.0,0.,12.0
1979-07-23 15:18:48.240 ,7,0,0.,12.0,0.,12.0,0.,12.0,0.,12.0
1979-07-23 15:19:00.240 ,7,0,0.,12.0,0.,12.0,0.,12.0,0.,12.0
1979-07-23 15:19:12.240 ,7,0,0.,12.0,0.,12.0,0.,12.0,0.,12.0
1979-07-23 15:19:24.240 ,7,0,0.,12.0,0.,12.0,0.,12.0,0.,12.0
1979-07-23 15:19:36.240 ,7,0,0.,12.0,0.,12.0,0.,12.0,0.,12.0
1979-07-23 15:19:48.240 ,7,0,0.,12.0,0.,12.0,0.,12.0,0.,12.0
1979-07-23 15:20:00.240 ,7,0,0.,12.0,0.,12.0,0.,12.0,0.,12.0
1979-07-23 15:20:12.240 ,7,0,0.,12.0,0.,12.0,0.,12.0,0.,12.0
1979-07-23 15:20:24.240 ,7,0,0.,12.0,0.,12.0,0.,12.0,0.,12.0
1979-07-23 15:20:36.240 ,7,0,0.,12.0,0.,12.0,0.,12.0,0.,12.0
1979-07-23 15:20:48.240 ,7,0,0.,12.0,0.,12.0,0.,12.0,0.,12.0
1979-07-23 15:21:00.240 ,7,0,0.,12.0,0.,12.0,0.,12.0,1.,12.0
1979-07-23 15:21:12.240 ,7,0,0.,12.0,0.,12.0,0.,12.0,0.,12.0
1979-07-23 15:21:24.240 ,7,0,0.,12.0,0.,12.0,0.,12.0,0.,12.0
1979-07-23 15:21:36.240 ,7,0,0.,12.0,0.,12.0,0.,12.0,0.,12.0
1979-07-23 15:21:48.240 ,7,0,0.,12.0,0.,12.0,0.,12.0,0.,12.0
1979-07-23 15:22:00.240 ,7,0,0.,12.0,0.,12.0,0.,12.0,0.,12.0
1979-07-23 15:22:12.240 ,7,0,0.,12.0,0.,12.0,0.,12.0,0.,12.0
1979-07-23 15:22:24.240 ,7,0,0.,12.0,0.,12.0,0.,12.0,0.,12.0
1979-07-23 15:22:36.240 ,7,0,0.,12.0,0.,12.0,0.,12.0,0.,12.0
1979-07-23 15:22:48.240 ,7,0,0.,12.0,0.,12.0,0.,12.0,0.,12.0
1979-07-23 15:23:00.240 ,7,0,0.,12.0,0.,12.0,0.,12.0,0.,12.0
1979-07-23 15:23:12.240 ,7,0,0.,12.0,0.,12.0,0.,12.0,0.,12.0
1979-07-23 15:23:24.240 ,7,0,0.,12.0,0.,12.0,0.,12.0,0.,12.0
